Regional Weather Roundup
Issued by NWS

Home | Current Version | Previous Version | Text Only | Print | Product List | Glossary On
Versions: 1 2 3 4 5 6 7 8 9 10 11 12 13 14 15 16 17 18 19 20 21 22 23 24 25 26 27 28 29 30 31 32 33 34 35 36 37 38 39 40 41 42 43 44 45 46 47 48 49 50
000
ASUS45 KBOI 160210
RWRID
WEATHER ROUNDUP FOR IDAHO
NATIONAL WEATHER SERVICE BOISE ID
800 PM MDT MON SEP 15 2014

NOTE: "FAIR" INDICATES FEW OR NO CLOUDS BELOW 12000 FEET
WITH NO SIGNIFICANT WEATHER AND/OR OBSTRUCTIONS TO VISIBILITY

IDZ012-014-160300-
SOUTHWEST IDAHO


CITY           SKY/WX    TMP DP  RH WIND       PRES   REMARKS
BOISE          PTCLDY    85  34  16 CALM      29.91F
CALDWELL       PTCLDY    82  37  20 CALM      29.91S
MOUNTAIN HOME  PTCLDY    84  35  17 SW1       29.92S
$$

IDZ016-017-160300-
SOUTHCENTRAL IDAHO


CITY           SKY/WX    TMP DP  RH WIND       PRES   REMARKS
BURLEY         PTCLDY    71  47  42 CALM      30.02F
JEROME         CLEAR     68  48  48 NE3       30.02S
TWIN FALLS     CLEAR     69  45  41 E7        30.02F
$$

IDZ019>023-160300-
SOUTHEAST IDAHO


CITY           SKY/WX    TMP DP  RH WIND       PRES   REMARKS
IDAHO FALLS    CLEAR     77  33  20 S8        30.09S
POCATELLO      CLEAR     73  36  25 SW6       30.07S
REXBURG        CLEAR     70  37  29 S6        30.09S
$$

IDZ006-010-011-018-031-032-160300-
CENTRAL IDAHO MOUNTAINS


CITY           SKY/WX    TMP DP  RH WIND       PRES   REMARKS
MCCALL         MOCLDY    70  35  27 SE6       30.07F
HAILEY         PTCLDY    72  39  30 SW5       30.12S
STANLEY          N/A     66  29  24 SW5       30.20S
SALMON         PTCLDY    66  36  32 SE3       30.00S
CHALLIS        PTCLDY    72  29  20 W7        30.07S
$$

IDZ002-004-006-007-026-160300-
NORTHERN IDAHO


CITY           SKY/WX    TMP DP  RH WIND       PRES   REMARKS
LEWISTON       PTCLDY    82  30  15 W3        29.83F
LOWELL           N/A     63  54  72 CALM      29.88R
COEUR D`ALENE  CLEAR     72  37  28 N7        29.92S
MULLAN PASS    CLEAR     63  23  21 CALM      30.14F
$$


USA.gov is the U.S. government's official web portal to all federal, state and local government web resources and services.